Location: Lewisville
(33.0462°N, 96.9942°W)
Time: 08:30:16
(UTC-06:00)

Envisat - Pass Details

Date: 10 October 2021
Orbit: 764 x 766 km, 98.2° (Epoch: 26 November)

Event Time Altitude Azimuth Distance (km) Brightness Sun altitude
Rises 06:22:36 0° 14° (NNE) 3,236 6.4 -14.7°
Reaches altitude 10° 06:24:56 10° 17° (NNE) 2,306 5.7 -14.2°
Maximum altitude 06:30:00 73° 101° (ESE) 799 3.3 -13.1°
Drops below altitude 10° 06:35:03 10° 187° (S) 2,291 5.4 -12.1°
Sets 06:37:21 0° 189° (S) 3,213 6.1 -11.6°
